Location: Stoke Bliss
(52.2667°N, 2.5167°W)
Time: 02:00:19
(UTC+00:00)

Cosmos 1000 Rocket - Pass Details

Date: 03 March 2021
Orbit: 954 x 991 km, 82.9° (Epoch: 11 April)

Event Time Altitude Azimuth Distance (km) Brightness Sun altitude
Rises 20:38:42 0° 349° (N) 3,688 8.0 -25.5°
Reaches altitude 10° 20:41:13 10° 351° (N) 2,742 7.2 -25.9°
Maximum altitude 20:47:32 82° 79° (E) 1,001 4.4 -26.8°
Enters shadow 20:48:33 64° 152° (SSE) 1,084 4.4 -26.9°
